TimeCST,TemperatureF,Dew PointF,Humidity,Sea Level PressureIn,VisibilityMPH,Wind Direction,Wind SpeedMPH,Gust SpeedMPH,PrecipitationIn,Events,Conditions,WindDirDegrees,DateUTC
12:53 AM,35.1,28.9,78,30.20,10.0,SW,6.9,-,N/A,,Clear,230,2013-01-06 06:53:00
1:53 AM,35.1,28.9,78,30.20,10.0,North,-9999.0,-,N/A,,Clear,0,2013-01-06 07:53:00
2:53 AM,34.0,28.9,82,30.19,10.0,North,-9999.0,-,N/A,,Clear,0,2013-01-06 08:53:00
3:53 AM,32.0,28.9,88,30.19,9.0,West,9.2,-,N/A,,Clear,270,2013-01-06 09:53:00
4:53 AM,32.0,28.0,85,30.19,9.0,West,9.2,-,N/A,,Clear,270,2013-01-06 10:53:00
6:53 AM,30.9,25.0,79,30.23,10.0,WNW,9.2,-,N/A,,Clear,290,2013-01-06 12:53:00
7:53 AM,30.0,24.1,79,30.26,10.0,NW,11.5,19.6,N/A,,Clear,310,2013-01-06 13:53:00
8:53 AM,30.9,23.0,72,30.27,10.0,NW,13.8,19.6,N/A,,Clear,310,2013-01-06 14:53:00
9:53 AM,33.1,23.0,66,30.30,10.0,NW,16.1,24.2,N/A,,Clear,320,2013-01-06 15:53:00
10:53 AM,36.0,23.0,59,30.31,10.0,NNW,13.8,19.6,N/A,,Clear,330,2013-01-06 16:53:00
11:53 AM,39.0,24.1,55,30.30,10.0,NNW,9.2,-,N/A,,Clear,330,2013-01-06 17:53:00
12:53 PM,41.0,24.1,51,30.29,10.0,NW,15.0,-,N/A,,Clear,310,2013-01-06 18:53:00
1:53 PM,41.0,23.0,49,30.30,10.0,NNW,9.2,-,N/A,,Clear,340,2013-01-06 19:53:00
3:53 PM,42.1,19.0,40,30.33,10.0,NNW,6.9,-,N/A,,Clear,340,2013-01-06 21:53:00
4:53 PM,37.9,18.0,45,30.35,10.0,North,3.5,-,N/A,,Clear,360,2013-01-06 22:53:00
5:53 PM,35.1,17.1,48,30.36,10.0,NNW,3.5,-,N/A,,Clear,330,2013-01-06 23:53:00
6:53 PM,30.9,17.1,57,30.37,10.0,Calm,Calm,-,N/A,,Clear,0,2013-01-07 00:53:00
7:53 PM,30.0,17.1,59,30.39,10.0,Calm,Calm,-,N/A,,Clear,0,2013-01-07 01:53:00
9:53 PM,25.0,16.0,69,30.40,10.0,Calm,Calm,-,N/A,,Clear,0,2013-01-07 03:53:00
10:53 PM,23.0,16.0,74,30.40,10.0,Calm,Calm,-,N/A,,Clear,0,2013-01-07 04:53:00
11:53 PM,21.9,16.0,78,30.40,10.0,Calm,Calm,-,N/A,,Clear,0,2013-01-07 05:53:00